Location: Courçay
(47.2523°N, 0.8761°E)
Time: 00:20:37
(UTC+00:00)

SKYMED 2 - Pass Details

Date: 18 November 2025
Orbit: 621 x 623 km, 97.9° (Epoch: 05 December)

Event Time Altitude Azimuth Distance (km) Brightness Sun altitude
Exits shadow 18:03:25 10° 17° (NNE) 1,978 5.9 -17.7°
Maximum altitude 18:07:43 74° 102° (ESE) 651 3.4 -18.4°
Drops below altitude 10° 18:12:02 10° 188° (S) 1,985 6.3 -19.2°
Sets 18:14:13 0° 190° (S) 2,887 7.2 -19.5°
